Regional Weather Roundup
Issued by NWS

Home | Current Version | Previous Version | Text Only | Print | Product List | Glossary On
Versions: 1 2 3 4 5 6 7 8 9 10 11 12 13 14 15 16 17 18 19 20 21 22 23 24 25 26 27 28 29 30 31 32 33 34 35 36 37 38 39 40 41 42 43 44 45 46 47 48 49 50
000
ASUS43 KMKX 281359
RWRWI

WISCONSIN REGIONAL WEATHER ROUNDUP
NATIONAL WEATHER SERVICE MILWAUKEE/SULLIVAN WI
800 AM CST WED JAN 28 2015

NOTE: "FAIR" INDICATES FEW OR NO CLOUDS BELOW 12,000 FEET WITH NO
SIGNIFICANT WEATHER AND/OR OBSTRUCTIONS TO VISIBILITY.

WIZ001-002-006>008-014>016-023>028-281500-
NORTHWEST WISCONSIN

CITY           SKY/WX    TMP DP  RH WIND       PRES   REMARKS
SUPERIOR ARPT  CLOUDY    25  22  87 CALM      30.04S
ASHLAND        MOCLDY    23  20  88 CALM      30.05F FOG
HAYWARD        CLOUDY    23  20  88 SE6       30.03F FOG     WCI  16
SIREN          CLOUDY    25  22  87 SE8       30.02F WCI  17
CUMBERLAND     CLOUDY    23  21  93 SE12      30.02F FOG     WCI  12
RICE LAKE      CLOUDY    24  21  89 SE13      30.06F WCI  12
CHETEK         CLOUDY    24  21  90 SE14      30.06F WCI  11
LADYSMITH      CLOUDY    25  23  93 SE12G17   30.08F FOG     WCI  14
EAU CLAIRE     CLOUDY    25  20  81 SE8       30.08F WCI  16
MENOMONIE      CLOUDY    26  23  88 SE12      30.08S FOG     WCI  15
NEW RICHMOND   CLOUDY    26  23  89 SE8G17    30.02F WCI  17
OSCEOLA        CLOUDY    27  25  91 SE12      30.04F WCI  17
$$

WIZ003>005-009-010-017-018-281500-
NORTH CENTRAL WISCONSIN

CITY           SKY/WX    TMP DP  RH WIND       PRES   REMARKS
MANITOWISH WTR CLOUDY    22  22  99 S10       30.06R FOG     WCI  11
ARBOR VITAE    CLOUDY    23  22  93 S9        30.08R FOG     WCI  13
WOODRUFF       CLOUDY    23  22  93 S9        30.08R FOG     WCI  13
RHINELANDER    CLOUDY    22  20  92 S9        30.10S FOG     WCI  12
EAGLE RIVER    CLOUDY    22  20  91 S7        30.09S FOG     WCI  14
LAND O LAKES   CLOUDY    23  22  96 S7        30.08S FOG     WCI  15
PHILLIPS       CLOUDY    22  21  96 S10G17    30.07F FOG     WCI  11
TOMAHAWK       CLOUDY    22  21  93 CALM      30.11S FOG
MEDFORD        FOG       21  21 100 SE8       30.09F VSB 1   WCI  12
MERRILL        CLOUDY    24  22  91 S6        30.13R FOG     WCI  17
$$

WIZ029-030-035-036-043>047-281500-
CENTRAL WISCONSIN

CITY           SKY/WX    TMP DP  RH WIND       PRES   REMARKS
WAUSAU         CLOUDY    24  21  88 S15       30.13S FOG     WCI  11
MOSINEE        NOT AVBL
MARSHFIELD     CLOUDY    25  22  88 S9        30.11F FOG     WCI  15
STEVENS POINT  CLOUDY    23  19  87 SE10      30.16S WCI  12
WAUPACA        CLOUDY    26  20  78 SE6       30.21S WCI  19
WAUTOMA        NOT AVBL
WISC RAPIDS    CLOUDY    25  20  81 S9        30.16S WCI  15
CAMP DOUGLAS   NOT AVBL
$$

WIZ011>013-019>022-031-037>040-048>050-281500-
NORTHEAST WISCONSIN

CITY           SKY/WX    TMP DP  RH WIND       PRES   REMARKS
ANTIGO         CLOUDY    20  18  92 S12       30.14R WCI   8
SHAWANO        CLOUDY    26  19  74 CALM      30.21S
OCONTO         MOCLDY    16  15  96 MISG      30.22F
STURGEON BAY   PTCLDY    21  16  79 S7        30.25S WCI  13
GREEN BAY      MOCLDY    20  17  88 S5        30.23F WCI  13
MANITOWOC      NOT AVBL
APPLETON       MOCLDY    23  18  80 S9        30.22S WCI  13
CLINTONVILLE   CLOUDY    25  19  80 S7        30.20S WCI  17
OSHKOSH        MOCLDY    22  17  81 S7        30.22S WCI  13
$$

WIZ032>034-041-042-053>061-281500-
SOUTHWEST WISCONSIN

CITY           SKY/WX    TMP DP  RH WIND       PRES   REMARKS
LA CROSSE      CLOUDY    28  23  81 SE12      30.12F HAZE    WCI  18
SPARTA         CLOUDY    26  23  87 S10       30.14S FOG     WCI  16
VIROQUA        CLOUDY    25  25 100 SE12G20   30.10S WCI  14
BOSCOBEL       CLOUDY    28  23  81 S8        30.17F HAZE    WCI  20
PRAIRIE DU CHI CLOUDY    27  23  86 SE9       30.16S FOG     WCI  17
PLATTEVILLE    CLOUDY    26  25  93 SE12      30.16S WCI  16
$$

WIZ056-057-062-063-064-067-068-281500-
SOUTH CENTRAL WISCONSIN

CITY           SKY/WX    TMP DP  RH WIND       PRES   REMARKS
REEDSBURG      CLOUDY    24  21  88 SE8       30.16S WCI  15
BARABOO/DELLS  CLOUDY    24  21  87 S13       30.17S WCI  12
LONE ROCK      CLOUDY    26  22  84 SE13      30.19S FOG     WCI  15
MINERAL POINT  CLOUDY    28  27  93 S10       30.15S FOG     WCI  19
MADISON        CLOUDY    22  18  85 S14       30.20F WCI   9
MIDDLETON      CLOUDY    26  21  82 SE9       30.20F WCI  17
WATERTOWN      PTCLDY    20  18  91 SE5       30.23S WCI  13
MONROE         CLOUDY    27  25  93 S13       30.19S FOG     WCI  16
JANESVILLE     NOT AVBL
$$

WIZ051-052-058>065-066-070>072-281500-
SOUTHEAST WISCONSIN

CITY           SKY/WX    TMP DP  RH WIND       PRES   REMARKS
MILWAUKEE      MOCLDY    24  18  77 S6        30.25F WCI  17
WAUKESHA       PTCLDY    19  16  86 S5        30.25S WCI  13
MILWAUKEE/TIMM NOT AVBL
RACINE         MOCLDY    24  19  81 SW3       30.27F
BURLINGTON     CLEAR     12  11  93 CALM      30.26S
KENOSHA        CLOUDY    24  20  84 S7        30.26S WCI  16
FOND DU LAC    MOCLDY    23  17  78 S8        30.22F WCI  14
SHEBOYGAN      MOCLDY    20  15  81 CALM      30.24S
WEST BEND      PTCLDY    19  16  86 CALM      30.24R
JUNEAU         PTCLDY    20  17  86 SE9       30.23S WCI  10
$$

LSZ147-162-281500-
LAKE SUPERIOR

STATION/POSITION TIME  TEMP    WIND        PRES    WAVE
                       AIR SEA DIR/SP/G            HT/PER
                 (UTC) (F)     (DEG/KT/KT) (MB)    (FT/S)
DEVILS ISLAND    1300   28     180/  6/  8 1019.1F
PORT WING        1300   25     110/  1/  2 1017.9F
SAXON HARBOR     1300   25        CALM     1018.6S
$$

LMZ867-665-643>646-281500-
LAKE MICHIGAN

STATION/POSITION TIME  TEMP    WIND        PRES    WAVE
                       AIR SEA DIR/SP/G            HT/PER
                 (UTC) (F)     (DEG/KT/KT) (MB)    (FT/S)
NORTHPORT PIER   1305   18     210/  2/  6 1024.0F
SISTER BAY       1243   20        CALM       N/A
KEWAUNEE LAKESHO 1300   20     250/  1/  4 1023.3F
SHEBOYGAN LAKESH 1300   29     160/ 10/ 11 1025.4R
PORT WASHINGTON  1300   23        CALM     1025.1F
MILWAUKEE LAKESH 1300   26     200/  8/  9   N/A
KENOSHA   LAKESH 1300   26     200/  4/  4 1024.7F
$$

TC  - TEMPERATURE IN CELSIUS
VSB - VISIBILITY IN STATUTE MILES
WCI - WIND CHILL INDEX
HX  - HEAT INDEX



USA.gov is the U.S. government's official web portal to all federal, state and local government web resources and services.